| time (UTC) | temp F | wind direction | speed MPH | gust MPH | rain 1hr in | rain 24hr in | rain mn in | humidity % | barometer mb |
| 20260510234006 | 58 | 148 | 4.0 | 11.0 | 0.00 | 0.08 | 0.00 | 81 | 1010.8 |
| 20260510233514 | 58 | 163 | 4.0 | 11.0 | 0.00 | 0.08 | 0.00 | 80 | 1010.7 |
| 20260510233005 | 59 | 159 | 4.0 | 9.0 | 0.00 | 0.08 | 0.00 | 79 | 1010.6 |
| 20260510231504 | 60 | 146 | 4.0 | 8.0 | 0.00 | 0.08 | 0.00 | 78 | 1010.4 |
| 20260510231004 | 60 | 158 | 4.0 | 8.0 | 0.00 | 0.08 | 0.00 | 78 | 1010.3 |
| 20260510230524 | 60 | 157 | 5.0 | 10.0 | 0.00 | 0.08 | 0.00 | 77 | 1010.2 |
| 20260510230028 | 61 | 179 | 5.0 | 11.0 | 0.00 | 0.08 | 0.00 | 77 | 1010.2 |
| 20260510225519 | 61 | 158 | 6.0 | 11.0 | 0.00 | 0.10 | 0.00 | 76 | 1010.1 |
| 20260510225000 | 62 | 121 | 5.0 | 11.0 | 0.00 | 0.10 | 0.00 | 75 | 1010.0 |
| 20260510224507 | 62 | 155 | 5.0 | 11.0 | 0.00 | 0.10 | 0.00 | 74 | 1009.9 |
| 20260510223503 | 63 | 190 | 6.0 | 11.0 | 0.00 | 0.10 | 0.00 | 73 | 1009.8 |
| 20260510223030 | 63 | 178 | 5.0 | 11.0 | 0.00 | 0.10 | 0.00 | 72 | 1009.7 |
| 20260510222504 | 64 | 134 | 5.0 | 12.0 | 0.00 | 0.10 | 0.00 | 72 | 1009.7 |
| 20260510222015 | 64 | 142 | 5.0 | 12.0 | 0.00 | 0.10 | 0.00 | 72 | 1009.6 |
| 20260510221459 | 64 | 175 | 5.0 | 11.0 | 0.00 | 0.10 | 0.00 | 72 | 1009.5 |
| 20260510221022 | 64 | 184 | 5.0 | 11.0 | 0.00 | 0.10 | 0.00 | 72 | 1009.6 |
| 20260510220501 | 64 | 142 | 5.0 | 14.0 | 0.00 | 0.10 | 0.00 | 71 | 1009.6 |
| 20260510220009 | 64 | 156 | 5.0 | 14.0 | 0.00 | 0.10 | 0.00 | 70 | 1009.6 |
| 20260510215515 | 65 | 172 | 5.0 | 11.0 | 0.00 | 0.17 | 0.00 | 71 | 1009.7 |
| 20260510215004 | 65 | 157 | 5.0 | 12.0 | 0.00 | 0.17 | 0.00 | 70 | 1009.7 |
| 20260510214506 | 65 | 121 | 5.0 | 13.0 | 0.00 | 0.17 | 0.00 | 70 | 1009.8 |
| 20260510214012 | 66 | 154 | 6.0 | 14.0 | 0.00 | 0.17 | 0.00 | 68 | 1009.8 |
| 20260510213520 | 66 | 151 | 6.0 | 14.0 | 0.00 | 0.17 | 0.00 | 68 | 1009.8 |
| 20260510213004 | 66 | 156 | 5.0 | 15.0 | 0.00 | 0.17 | 0.00 | 67 | 1009.6 |
| 20260510212500 | 67 | 166 | 5.0 | 15.0 | 0.00 | 0.17 | 0.00 | 66 | 1009.6 |
| 20260510212041 | 67 | 88 | 6.0 | 12.0 | 0.00 | 0.17 | 0.00 | 65 | 1009.7 |
| 20260510211500 | 68 | 202 | 6.0 | 14.0 | 0.00 | 0.17 | 0.00 | 64 | 1009.6 |
| 20260510211004 | 68 | 219 | 6.0 | 14.0 | 0.00 | 0.17 | 0.00 | 63 | 1009.6 |
| 20260510210516 | 69 | 213 | 6.0 | 12.0 | 0.00 | 0.17 | 0.00 | 61 | 1009.5 |
| 20260510210005 | 70 | 205 | 6.0 | 15.0 | 0.00 | 0.17 | 0.00 | 60 | 1009.5 |
| 20260510205508 | 70 | 171 | 7.0 | 15.0 | 0.00 | 0.17 | 0.00 | 60 | 1009.5 |
| 20260510205002 | 70 | 212 | 6.0 | 14.0 | 0.00 | 0.17 | 0.00 | 59 | 1009.6 |
| 20260510204509 | 70 | 174 | 6.0 | 14.0 | 0.00 | 0.17 | 0.00 | 58 | 1009.7 |
| 20260510204023 | 71 | 91 | 7.0 | 15.0 | 0.00 | 0.17 | 0.00 | 58 | 1009.7 |
| 20260510203502 | 71 | 185 | 6.0 | 15.0 | 0.00 | 0.17 | 0.00 | 59 | 1009.8 |
| 20260510203028 | 71 | 142 | 6.0 | 12.0 | 0.00 | 0.17 | 0.00 | 59 | 1009.8 |
| 20260510202501 | 71 | 142 | 6.0 | 14.0 | 0.00 | 0.17 | 0.00 | 59 | 1009.8 |
| 20260510202011 | 72 | 170 | 6.0 | 14.0 | 0.00 | 0.17 | 0.00 | 59 | 1009.8 |
| 20260510201522 | 72 | 134 | 5.0 | 11.0 | 0.00 | 0.17 | 0.00 | 58 | 1009.8 |
| 20260510201029 | 72 | 207 | 5.0 | 13.0 | 0.00 | 0.17 | 0.00 | 59 | 1009.8 |
| 20260510200502 | 71 | 198 | 6.0 | 13.0 | 0.00 | 0.17 | 0.00 | 59 | 1009.8 |
| 20260510200004 | 71 | 248 | 6.0 | 14.0 | 0.00 | 0.17 | 0.00 | 58 | 1009.9 |
| 20260510195458 | 72 | 146 | 7.0 | 15.0 | 0.00 | 0.17 | 0.00 | 58 | 1010.0 |
| 20260510195003 | 71 | 155 | 8.0 | 19.0 | 0.00 | 0.17 | 0.00 | 57 | 1010.1 |
| 20260510194522 | 71 | 171 | 8.0 | 19.0 | 0.00 | 0.17 | 0.00 | 59 | 1010.1 |
| 20260510194001 | 71 | 155 | 7.0 | 18.0 | 0.00 | 0.17 | 0.00 | 58 | 1010.1 |
| 20260510193022 | 72 | 206 | 7.0 | 18.0 | 0.00 | 0.17 | 0.00 | 57 | 1010.2 |
| 20260510192503 | 71 | 203 | 7.0 | 18.0 | 0.00 | 0.17 | 0.00 | 58 | 1010.0 |
| 20260510192002 | 72 | 171 | 7.0 | 18.0 | 0.00 | 0.17 | 0.00 | 57 | 1010.0 |
| 20260510191526 | 71 | 182 | 8.0 | 16.0 | 0.00 | 0.17 | 0.00 | 59 | 1010.0 |
| 20260510191000 | 71 | 129 | 8.0 | 16.0 | 0.00 | 0.17 | 0.00 | 58 | 1010.0 |
| 20260510190505 | 72 | 126 | 8.0 | 16.0 | 0.00 | 0.17 | 0.00 | 60 | 1010.0 |
| 20260510190025 | 72 | 189 | 7.0 | 20.0 | 0.00 | 0.17 | 0.00 | 56 | 1010.1 |
| 20260510185508 | 72 | 255 | 7.0 | 20.0 | 0.00 | 0.17 | 0.00 | 57 | 1010.0 |
| 20260510185006 | 72 | 135 | 7.0 | 18.0 | 0.00 | 0.17 | 0.00 | 56 | 1010.1 |
| 20260510184002 | 72 | 153 | 6.0 | 18.0 | 0.00 | 0.17 | 0.00 | 57 | 1010.2 |
| 20260510183510 | 72 | 138 | 6.0 | 12.0 | 0.00 | 0.17 | 0.00 | 59 | 1010.1 |
| 20260510183006 | 72 | 165 | 7.0 | 21.0 | 0.00 | 0.17 | 0.00 | 55 | 1010.3 |
| 20260510182502 | 72 | 157 | 7.0 | 21.0 | 0.00 | 0.17 | 0.00 | 56 | 1010.4 |
| 20260510182023 | 71 | 163 | 7.0 | 16.0 | 0.00 | 0.17 | 0.00 | 57 | 1010.4 |
| 20260510181500 | 71 | 215 | 7.0 | 15.0 | 0.00 | 0.17 | 0.00 | 57 | 1010.5 |
| 20260510180057 | 72 | 188 | 7.0 | 13.0 | 0.00 | 0.17 | 0.00 | 57 | 1010.7 |
| 20260510175503 | 72 | 164 | 7.0 | 13.0 | 0.00 | 0.17 | 0.00 | 57 | 1010.7 |
| 20260510175003 | 73 | 154 | 6.0 | 16.0 | 0.00 | 0.17 | 0.00 | 57 | 1010.6 |
| 20260510174511 | 72 | 171 | 7.0 | 18.0 | 0.00 | 0.17 | 0.00 | 58 | 1010.5 |
| 20260510173503 | 72 | 199 | 6.0 | 16.0 | 0.00 | 0.17 | 0.00 | 57 | 1010.7 |
| 20260510173025 | 72 | 172 | 6.0 | 15.0 | 0.00 | 0.17 | 0.00 | 56 | 1010.6 |
| 20260510172506 | 72 | 166 | 6.0 | 15.0 | 0.00 | 0.17 | 0.00 | 58 | 1010.7 |
| 20260510172023 | 72 | 283 | 6.0 | 13.0 | 0.00 | 0.17 | 0.00 | 58 | 1010.6 |
| 20260510171001 | 71 | 188 | 6.0 | 14.0 | 0.00 | 0.17 | 0.00 | 60 | 1010.6 |
| 20260510170512 | 71 | 167 | 6.0 | 14.0 | 0.00 | 0.17 | 0.00 | 63 | 1010.6 |
| 20260510170027 | 70 | 93 | 6.0 | 13.0 | 0.00 | 0.17 | 0.00 | 64 | 1010.7 |
| 20260510165525 | 69 | 167 | 6.0 | 13.0 | 0.00 | 0.17 | 0.00 | 64 | 1010.8 |
| 20260510165020 | 70 | 163 | 5.0 | 13.0 | 0.00 | 0.17 | 0.00 | 61 | 1010.8 |
| 20260510164503 | 70 | 176 | 5.0 | 10.0 | 0.00 | 0.17 | 0.00 | 61 | 1010.7 |
| 20260510164009 | 69 | 108 | 6.0 | 13.0 | 0.00 | 0.17 | 0.00 | 63 | 1010.8 |
| 20260510163500 | 70 | 248 | 6.0 | 16.0 | 0.00 | 0.17 | 0.00 | 62 | 1010.9 |
| 20260510161009 | 70 | 205 | 6.0 | 12.0 | 0.00 | 0.17 | 0.00 | 65 | 1011.0 |
| 20260510160506 | 70 | 136 | 7.0 | 14.0 | 0.00 | 0.17 | 0.00 | 66 | 1011.0 |
| 20260510160009 | 70 | 132 | 6.0 | 14.0 | 0.00 | 0.17 | 0.00 | 66 | 1011.0 |
| 20260510155459 | 69 | 163 | 6.0 | 12.0 | 0.00 | 0.17 | 0.00 | 66 | 1011.0 |
| 20260510155012 | 69 | 143 | 5.0 | 12.0 | 0.00 | 0.17 | 0.00 | 68 | 1011.2 |
| 20260510154526 | 69 | 139 | 5.0 | 13.0 | 0.00 | 0.17 | 0.00 | 65 | 1011.2 |
| 20260510154000 | 68 | 175 | 5.0 | 13.0 | 0.00 | 0.17 | 0.00 | 65 | 1011.3 |
| 20260510153511 | 69 | 252 | 4.0 | 11.0 | 0.00 | 0.17 | 0.00 | 68 | 1011.1 |
| 20260510152502 | 68 | 163 | 4.0 | 9.0 | 0.00 | 0.17 | 0.00 | 68 | 1011.1 |
| 20260510152011 | 68 | 192 | 5.0 | 11.0 | 0.00 | 0.17 | 0.00 | 69 | 1011.2 |
| 20260510151503 | 67 | 246 | 6.0 | 12.0 | 0.00 | 0.17 | 0.00 | 69 | 1011.3 |
| 20260510151001 | 66 | 128 | 6.0 | 12.0 | 0.00 | 0.17 | 0.00 | 71 | 1011.4 |
| 20260510150504 | 66 | 206 | 5.0 | 12.0 | 0.00 | 0.17 | 0.00 | 69 | 1011.4 |
| 20260510150026 | 67 | 153 | 5.0 | 9.0 | 0.00 | 0.17 | 0.00 | 70 | 1011.4 |
| 20260510145500 | 66 | 172 | 4.0 | 9.0 | 0.00 | 0.17 | 0.00 | 69 | 1011.3 |
| 20260510145021 | 66 | 257 | 3.0 | 8.0 | 0.00 | 0.17 | 0.00 | 71 | 1011.3 |
| 20260510144510 | 66 | 197 | 4.0 | 10.0 | 0.00 | 0.17 | 0.00 | 71 | 1011.3 |
| 20260510143503 | 65 | 130 | 4.0 | 8.0 | 0.00 | 0.17 | 0.00 | 73 | 1011.3 |
| 20260510143007 | 65 | 172 | 3.0 | 8.0 | 0.00 | 0.17 | 0.00 | 73 | 1011.4 |
| 20260510142501 | 65 | 172 | 3.0 | 6.0 | 0.00 | 0.17 | 0.00 | 77 | 1011.4 |
| 20260510142002 | 65 | 248 | 4.0 | 8.0 | 0.00 | 0.17 | 0.00 | 73 | 1011.4 |
| 20260510141003 | 65 | 224 | 4.0 | 9.0 | 0.00 | 0.17 | 0.00 | 76 | 1011.4 |
| 20260510140500 | 65 | 142 | 4.0 | 9.0 | 0.00 | 0.17 | 0.00 | 74 | 1011.3 |
| 20260510140011 | 65 | 169 | 4.0 | 9.0 | 0.00 | 0.17 | 0.00 | 75 | 1011.3 |
| 20260510135511 | 64 | 134 | 4.0 | 10.0 | 0.00 | 0.17 | 0.00 | 76 | 1011.3 |
| 20260510135003 | 64 | 198 | 4.0 | 10.0 | 0.00 | 0.17 | 0.00 | 75 | 1011.2 |
| 20260510134505 | 64 | 140 | 3.0 | 9.0 | 0.00 | 0.17 | 0.00 | 76 | 1011.2 |
| 20260510133544 | 63 | 192 | 4.0 | 12.0 | 0.00 | 0.17 | 0.00 | 76 | 1011.2 |
| 20260510132506 | 63 | 165 | 5.0 | 11.0 | 0.00 | 0.17 | 0.00 | 82 | 1010.8 |
| 20260510132043 | 62 | 145 | 6.0 | 11.0 | 0.00 | 0.17 | 0.00 | 78 | 1010.4 |
| 20260510131002 | 62 | 102 | 5.0 | 10.0 | 0.00 | 0.17 | 0.00 | 82 | 1010.3 |
| 20260510130500 | 61 | 197 | 5.0 | 10.0 | 0.00 | 0.17 | 0.00 | 80 | 1010.4 |
| 20260510130004 | 61 | 154 | 5.0 | 10.0 | 0.00 | 0.17 | 0.00 | 84 | 1010.4 |
| 20260510125459 | 60 | 184 | 5.0 | 10.0 | 0.00 | 0.17 | 0.00 | 84 | 1010.5 |
| 20260510124504 | 60 | 157 | 5.0 | 12.0 | 0.00 | 0.17 | 0.00 | 84 | 1010.7 |
| 20260510124031 | 59 | 126 | 6.0 | 12.0 | 0.00 | 0.17 | 0.00 | 86 | 1010.8 |
| 20260510123006 | 59 | 146 | 4.0 | 9.0 | 0.00 | 0.17 | 0.00 | 86 | 1010.9 |
| 20260510122514 | 58 | 171 | 4.0 | 9.0 | 0.00 | 0.17 | 0.00 | 87 | 1010.9 |
| 20260510122000 | 58 | 141 | 3.0 | 7.0 | 0.00 | 0.17 | 0.00 | 88 | 1011.0 |
| 20260510121522 | 58 | 180 | 3.0 | 8.0 | 0.00 | 0.17 | 0.00 | 89 | 1011.1 |
| 20260510121018 | 57 | 207 | 4.0 | 8.0 | 0.00 | 0.17 | 0.00 | 89 | 1011.2 |
| 20260510120501 | 57 | 161 | 3.0 | 7.0 | 0.00 | 0.17 | 0.00 | 90 | 1011.2 |
| 20260510120023 | 57 | 127 | 3.0 | 7.0 | 0.00 | 0.17 | 0.00 | 90 | 1011.2 |
| 20260510115504 | 57 | 119 | 2.0 | 7.0 | 0.00 | 0.20 | 0.00 | 91 | 1011.2 |
| 20260510115007 | 57 | 142 | 1.0 | 6.0 | 0.00 | 0.20 | 0.00 | 91 | 1011.3 |
| 20260510114503 | 57 | 184 | 1.0 | 5.0 | 0.00 | 0.20 | 0.00 | 91 | 1011.3 |
| 20260510114004 | 57 | 180 | 1.0 | 5.0 | 0.00 | 0.20 | 0.00 | 91 | 1011.3 |
| 20260510113507 | 56 | 155 | 1.0 | 8.0 | 0.00 | 0.20 | 0.00 | 92 | 1011.3 |
| 20260510113022 | 56 | 157 | 2.0 | 8.0 | 0.00 | 0.20 | 0.00 | 92 | 1011.2 |
| 20260510112524 | 56 | 161 | 2.0 | 7.0 | 0.00 | 0.20 | 0.00 | 92 | 1011.2 |
| 20260510112011 | 56 | 239 | 2.0 | 7.0 | 0.00 | 0.20 | 0.00 | 92 | 1011.2 |
| 20260510111505 | 56 | 194 | 3.0 | 7.0 | 0.00 | 0.20 | 0.00 | 92 | 1011.3 |
| 20260510111004 | 56 | 207 | 2.0 | 7.0 | 0.00 | 0.20 | 0.00 | 92 | 1011.3 |
| 20260510105459 | 55 | 186 | 2.0 | 7.0 | 0.00 | 0.20 | 0.00 | 92 | 1011.2 |
| 20260510105001 | 55 | 242 | 2.0 | 6.0 | 0.00 | 0.20 | 0.00 | 92 | 1011.2 |
| 20260510104518 | 55 | 150 | 2.0 | 8.0 | 0.00 | 0.20 | 0.00 | 92 | 1011.3 |
| 20260510103959 | 55 | 198 | 3.0 | 9.0 | 0.00 | 0.20 | 0.00 | 92 | 1011.3 |
| 20260510102003 | 55 | 181 | 3.0 | 8.0 | 0.00 | 0.20 | 0.00 | 91 | 1011.0 |
| 20260510101515 | 55 | 194 | 3.0 | 8.0 | 0.00 | 0.20 | 0.00 | 91 | 1010.9 |
| 20260510100504 | 54 | 159 | 2.0 | 6.0 | 0.00 | 0.20 | 0.00 | 91 | 1010.7 |
| 20260510100005 | 54 | 174 | 2.0 | 6.0 | 0.00 | 0.20 | 0.00 | 91 | 1010.8 |
| 20260510095504 | 54 | 198 | 3.0 | 8.0 | 0.00 | 0.20 | 0.00 | 91 | 1010.7 |
| 20260510095009 | 54 | 202 | 3.0 | 8.0 | 0.00 | 0.20 | 0.00 | 91 | 1010.5 |
| 20260510094513 | 54 | 113 | 3.0 | 7.0 | 0.00 | 0.20 | 0.00 | 91 | 1010.4 |
| 20260510094033 | 54 | 151 | 2.0 | 6.0 | 0.00 | 0.20 | 0.00 | 91 | 1010.5 |
| 20260510093508 | 54 | 164 | 2.0 | 6.0 | 0.00 | 0.20 | 0.00 | 91 | 1010.6 |
| 20260510092008 | 54 | 150 | 2.0 | 7.0 | 0.00 | 0.20 | 0.00 | 91 | 1010.4 |
| 20260510091501 | 54 | 178 | 1.0 | 3.0 | 0.00 | 0.20 | 0.00 | 91 | 1010.4 |
| 20260510091004 | 54 | 175 | 2.0 | 7.0 | 0.00 | 0.20 | 0.00 | 91 | 1010.4 |
| 20260510090506 | 54 | 238 | 2.0 | 7.0 | 0.00 | 0.20 | 0.00 | 91 | 1010.4 |
| 20260510090009 | 54 | 180 | 2.0 | 7.0 | 0.00 | 0.20 | 0.00 | 91 | 1010.4 |
| 20260510085501 | 54 | 205 | 2.0 | 7.0 | 0.00 | 0.20 | 0.00 | 91 | 1010.4 |
| 20260510085008 | 54 | 198 | 2.0 | 8.0 | 0.00 | 0.20 | 0.00 | 91 | 1010.4 |
| 20260510084507 | 54 | 211 | 3.0 | 8.0 | 0.00 | 0.20 | 0.00 | 91 | 1010.3 |
| 20260510084005 | 54 | 195 | 3.0 | 8.0 | 0.00 | 0.20 | 0.00 | 91 | 1010.2 |
| 20260510083459 | 54 | 211 | 3.0 | 8.0 | 0.00 | 0.20 | 0.00 | 91 | 1010.1 |
| 20260510083002 | 54 | 188 | 3.0 | 8.0 | 0.00 | 0.20 | 0.00 | 91 | 1010.2 |
| 20260510082511 | 54 | 165 | 2.0 | 12.0 | 0.00 | 0.20 | 0.00 | 91 | 1010.2 |
| 20260510082004 | 54 | 193 | 3.0 | 12.0 | 0.00 | 0.20 | 0.00 | 91 | 1010.3 |
| 20260510081458 | 54 | 156 | 3.0 | 9.0 | 0.00 | 0.20 | 0.00 | 90 | 1010.2 |
| 20260510081039 | 54 | 159 | 3.0 | 8.0 | 0.00 | 0.20 | 0.00 | 90 | 1010.2 |
| 20260510080501 | 55 | 206 | 3.0 | 8.0 | 0.00 | 0.20 | 0.00 | 91 | 1010.2 |
| 20260510080028 | 55 | 199 | 3.0 | 9.0 | 0.00 | 0.20 | 0.00 | 91 | 1010.2 |
| 20260510075507 | 55 | 194 | 3.0 | 9.0 | 0.00 | 0.20 | 0.00 | 90 | 1010.2 |
| 20260510074959 | 55 | 191 | 4.0 | 9.0 | 0.00 | 0.20 | 0.00 | 90 | 1010.1 |
| 20260510074535 | 55 | 150 | 3.0 | 9.0 | 0.00 | 0.20 | 0.00 | 90 | 1010.1 |
| 20260510074008 | 55 | 163 | 3.0 | 11.0 | 0.00 | 0.20 | 0.00 | 90 | 1010.1 |
| 20260510073516 | 55 | 225 | 3.0 | 11.0 | 0.00 | 0.20 | 0.00 | 90 | 1010.1 |
| 20260510073010 | 55 | 219 | 3.0 | 9.0 | 0.00 | 0.20 | 0.00 | 90 | 1010.1 |
| 20260510072508 | 55 | 276 | 3.0 | 9.0 | 0.00 | 0.20 | 0.00 | 90 | 1009.9 |
| 20260510072002 | 55 | 221 | 3.0 | 9.0 | 0.00 | 0.20 | 0.00 | 90 | 1009.9 |
| 20260510071504 | 55 | 186 | 3.0 | 10.0 | 0.00 | 0.20 | 0.00 | 90 | 1009.8 |
| 20260510071004 | 55 | 205 | 3.0 | 10.0 | 0.00 | 0.20 | 0.00 | 90 | 1009.7 |
| 20260510070515 | 55 | 171 | 3.0 | 10.0 | 0.00 | 0.20 | 0.00 | 90 | 1009.6 |
| 20260510070004 | 55 | 133 | 4.0 | 11.0 | 0.00 | 0.20 | 0.00 | 90 | 1009.6 |
| 20260510064504 | 55 | 219 | 3.0 | 9.0 | 0.00 | 0.20 | 0.00 | 90 | 1009.5 |
| 20260510064000 | 55 | 134 | 3.0 | 10.0 | 0.00 | 0.20 | 0.00 | 90 | 1009.5 |
| 20260510062959 | 55 | 161 | 3.0 | 9.0 | 0.00 | 0.20 | 0.00 | 90 | 1009.7 |
| 20260510062504 | 55 | 184 | 3.0 | 8.0 | 0.00 | 0.20 | 0.00 | 90 | 1009.7 |
| 20260510062026 | 55 | 215 | 3.0 | 8.0 | 0.00 | 0.20 | 0.00 | 90 | 1009.7 |
| 20260510061508 | 55 | 157 | 4.0 | 10.0 | 0.00 | 0.20 | 0.00 | 90 | 1009.6 |
| 20260510060500 | 55 | 171 | 4.0 | 11.0 | 0.00 | 0.20 | 0.00 | 89 | 1009.7 |
| 20260510060023 | 55 | 160 | 4.0 | 13.0 | 0.00 | 0.20 | 0.00 | 89 | 1009.7 |
| 20260510055507 | 55 | 170 | 4.0 | 13.0 | 0.00 | 0.20 | 0.00 | 89 | 1009.7 |
| 20260510055002 | 55 | 172 | 4.0 | 11.0 | 0.00 | 0.20 | 0.00 | 89 | 1009.6 |
| 20260510054507 | 55 | 186 | 5.0 | 18.0 | 0.00 | 0.20 | 0.00 | 89 | 1009.7 |
| 20260510053459 | 55 | 178 | 5.0 | 14.0 | 0.00 | 0.20 | 0.00 | 89 | 1009.6 |
| 20260510053028 | 56 | 161 | 5.0 | 14.0 | 0.00 | 0.20 | 0.00 | 89 | 1009.6 |
| 20260510052008 | 56 | 115 | 5.0 | 14.0 | 0.00 | 0.20 | 0.00 | 89 | 1009.6 |
| 20260510051508 | 56 | 143 | 5.0 | 14.0 | 0.00 | 0.20 | 0.00 | 89 | 1009.6 |
| 20260510051004 | 56 | 172 | 5.0 | 14.0 | 0.00 | 0.20 | 0.00 | 89 | 1009.6 |
| 20260510050508 | 56 | 107 | 6.0 | 13.0 | 0.00 | 0.20 | 0.00 | 89 | 1009.5 |
| 20260510050027 | 55 | 184 | 6.0 | 11.0 | 0.00 | 0.20 | 0.00 | 89 | 1009.6 |
| 20260510045510 | 55 | 199 | 5.0 | 13.0 | 0.00 | 0.20 | 0.00 | 89 | 1009.6 |
| 20260510044519 | 55 | 128 | 4.0 | 10.0 | 0.00 | 0.20 | 0.00 | 88 | 1009.7 |
| 20260510044009 | 55 | 150 | 4.0 | 10.0 | 0.00 | 0.20 | 0.00 | 88 | 1009.9 |
| 20260510043505 | 55 | 181 | 4.0 | 13.0 | 0.00 | 0.20 | 0.00 | 88 | 1009.9 |
| 20260510043002 | 55 | 78 | 4.0 | 13.0 | 0.00 | 0.20 | 0.00 | 88 | 1009.9 |
| 20260510042504 | 54 | 141 | 4.0 | 11.0 | 0.00 | 0.20 | 0.00 | 88 | 1010.0 |
| 20260510042000 | 54 | 138 | 3.0 | 11.0 | 0.00 | 0.20 | 0.00 | 88 | 1010.3 |
| 20260510041458 | 54 | 143 | 2.0 | 11.0 | 0.00 | 0.20 | 0.00 | 88 | 1010.1 |
| 20260510041002 | 54 | 135 | 3.0 | 11.0 | 0.00 | 0.20 | 0.00 | 88 | 1010.2 |
| 20260510040009 | 54 | 184 | 2.0 | 7.0 | 0.00 | 0.20 | 0.00 | 87 | 1010.1 |
| 20260510035511 | 53 | 195 | 3.0 | 7.0 | 0.00 | 0.20 | 0.20 | 87 | 1010.1 |
| 20260510035002 | 53 | 148 | 3.0 | 6.0 | 0.00 | 0.20 | 0.20 | 87 | 1010.0 |
| 20260510034508 | 53 | 147 | 3.0 | 7.0 | 0.00 | 0.20 | 0.20 | 87 | 1009.9 |
| 20260510034005 | 53 | 168 | 3.0 | 8.0 | 0.00 | 0.20 | 0.20 | 87 | 1009.9 |
| 20260510033008 | 53 | 135 | 5.0 | 10.0 | 0.00 | 0.20 | 0.20 | 87 | 1009.9 |
| 20260510032512 | 53 | 176 | 5.0 | 11.0 | 0.00 | 0.20 | 0.20 | 87 | 1010.0 |
| 20260510032001 | 53 | 127 | 4.0 | 11.0 | 0.00 | 0.20 | 0.20 | 87 | 1010.1 |
| 20260510031515 | 53 | 139 | 4.0 | 9.0 | 0.00 | 0.20 | 0.20 | 87 | 1010.2 |
| 20260510030508 | 53 | 123 | 3.0 | 9.0 | 0.00 | 0.20 | 0.20 | 86 | 1010.3 |
| 20260510030032 | 53 | 120 | 3.0 | 8.0 | 0.01 | 0.20 | 0.20 | 86 | 1010.4 |
| 20260510025505 | 53 | 136 | 4.0 | 8.0 | 0.01 | 0.20 | 0.20 | 86 | 1010.4 |
| 20260510025027 | 53 | 126 | 5.0 | 9.0 | 0.01 | 0.20 | 0.20 | 86 | 1010.5 |
| 20260510024502 | 53 | 127 | 4.0 | 9.0 | 0.01 | 0.20 | 0.20 | 86 | 1010.5 |
| 20260510024024 | 53 | 128 | 4.0 | 7.0 | 0.01 | 0.20 | 0.20 | 87 | 1010.7 |
| 20260510023504 | 53 | 163 | 3.0 | 7.0 | 0.01 | 0.20 | 0.20 | 87 | 1010.7 |
| 20260510023010 | 53 | 153 | 3.0 | 7.0 | 0.01 | 0.20 | 0.20 | 87 | 1010.8 |
| 20260510022036 | 53 | 138 | 4.0 | 9.0 | 0.01 | 0.20 | 0.20 | 87 | 1011.0 |
| 20260510021004 | 53 | 147 | 4.0 | 11.0 | 0.01 | 0.20 | 0.20 | 87 | 1011.1 |
| 20260510020507 | 53 | 129 | 5.0 | 12.0 | 0.01 | 0.20 | 0.20 | 87 | 1011.2 |
| 20260510020022 | 53 | 140 | 5.0 | 12.0 | 0.01 | 0.19 | 0.19 | 88 | 1011.2 |
| 20260510015008 | 53 | 150 | 4.0 | 10.0 | 0.01 | 0.19 | 0.19 | 88 | 1011.5 |
| 20260510014511 | 53 | 136 | 4.0 | 10.0 | 0.02 | 0.19 | 0.19 | 88 | 1011.6 |
| 20260510013507 | 53 | 156 | 4.0 | 9.0 | 0.02 | 0.19 | 0.19 | 88 | 1011.7 |
| 20260510013004 | 53 | 128 | 4.0 | 8.0 | 0.02 | 0.19 | 0.19 | 88 | 1011.8 |
| 20260510012500 | 53 | 150 | 4.0 | 8.0 | 0.02 | 0.19 | 0.19 | 88 | 1011.8 |
| 20260510012002 | 53 | 161 | 3.0 | 8.0 | 0.03 | 0.19 | 0.19 | 88 | 1011.9 |
| 20260510011005 | 53 | 157 | 4.0 | 11.0 | 0.03 | 0.19 | 0.19 | 88 | 1012.0 |
| 20260510005505 | 53 | 174 | 3.0 | 8.0 | 0.02 | 0.18 | 0.18 | 88 | 1012.0 |
| 20260510005009 | 53 | 198 | 3.0 | 8.0 | 0.02 | 0.18 | 0.18 | 88 | 1012.0 |
| 20260510004512 | 53 | 153 | 3.0 | 9.0 | 0.02 | 0.17 | 0.17 | 88 | 1012.1 |
| 20260510004007 | 54 | 136 | 3.0 | 11.0 | 0.02 | 0.17 | 0.17 | 88 | 1012.1 |
| 20260510003528 | 54 | 126 | 3.0 | 11.0 | 0.02 | 0.17 | 0.17 | 88 | 1012.1 |
| 20260510003005 | 54 | 123 | 3.0 | 10.0 | 0.02 | 0.17 | 0.17 | 88 | 1012.0 |
| 20260510002003 | 54 | 198 | 2.0 | 9.0 | 0.02 | 0.16 | 0.16 | 88 | 1012.0 |
| 20260510001501 | 54 | 161 | 2.0 | 7.0 | 0.02 | 0.16 | 0.16 | 89 | 1011.9 |
| 20260510001005 | 54 | 181 | 2.0 | 7.0 | 0.03 | 0.16 | 0.16 | 89 | 1011.9 |
| 20260510000501 | 54 | 163 | 1.0 | 7.0 | 0.03 | 0.16 | 0.16 | 89 | 1011.8 |
| 20260510000005 | 54 | 160 | 2.0 | 6.0 | 0.04 | 0.16 | 0.16 | 89 | 1011.8 |
| 20260509235504 | 54 | 194 | 2.0 | 8.0 | 0.04 | 0.16 | 0.16 | 89 | 1011.9 |
| 20260509235002 | 54 | 209 | 2.0 | 8.0 | 0.04 | 0.16 | 0.16 | 89 | 1011.8 |
| 20260509234510 | 54 | 201 | 2.0 | 8.0 | 0.03 | 0.15 | 0.15 | 89 | 1011.7 |